GPS IIR-14(M)

operational
NORAD ID: 28874 Int'l Des: 2005-038 Owner: AFSMC Country: US Constellation: GPS
MEOGNSS

GPS IIR-14(M)について

説明を読み込み中...

リアルタイム位置

3D地球を読み込み中...

次回通過

高度履歴

Altitude vs Time

uPlot chart will show altitude changes over time

軌道要素

1 28874U 05038A 26071.63943422 .00000028 00000-0 00000-0 0 9994
2 28874 54.9567 277.0724 0128582 295.4565 71.7553 2.00572530149903
Epoch: Mar 12, 2026 • Age: 19 hours

現在のステータス

高度 20528.3 km
速度 3.83 km/s
衛星直下点 46.70°N, 46.51°W
打ち上げ日 Sep 26, 2005
運用期間 20.4 years
タイプ navigation

技術仕様

分類 Payload
質量 1077.00 kg
乾燥質量 910.00 kg
総質量 2032.00 kg
長さ 1.50 m
直径 1.90 m
スパン 19.30 m
形状 Box + 2 Pan
製造者 LMVF
バスタイプ Series 4000
フェーズステータス In Orbit
所有者/国 AFSMC/US

大規模コンステレーション

Loading constellations...